Flag for Germany Weather past 2 weeks in Salzgitter, Lower Saxony, Germany

Now
39 °F

Passing clouds.


Feels Like: 30 °F
Forecast: 37 / 44 °F
Wind: 16 mph from West

Location: Braunschweig

Current Time: Dec 20, 2014 at 7:23:16 PM

Latest Report: Dec 20, 2014 at 5:50 PM


Visibility: N/A

Pressure: 29.89 "Hg

Humidity: 93%

Dew point: 37 °F

Location of SalzgitterLocation

Historic Weather in Salzgitter — Graph

°F

Salzgitter temperature yesterday

Maximum temperature yesterday: 52 °F (at 6:50 AM)
Minimum temperature yesterday: 43 °F (at 6:50 PM)
Average temperature yesterday: 48 °F

Past Weeks' High & Low Weather Summary

 TemperatureHumidityPressure
High54 °F (Dec 18, 6:50 PM)100% (Dec 5, 5:50 PM)30.36 "Hg (Dec 5, 5:50 PM)
Low34 °F (Dec 9, 8:20 PM)65% (Dec 10, 6:50 AM)29.36 "Hg (Dec 12, 2:20 PM)
Average42 °F89%29.86 "Hg
* Reported Dec 5 5:20 PM — Dec 20 5:50 PM, Salzgitter, Weather by CustomWeather, © 2014

Note: Actual official high and low records may vary slightly from our data, if they occured in-between our weather recording intervals... More about our weather records

Advertising

Salzgitter weather history for previous 24 hours

 ConditionsComfort  
Time TempWeatherWind HumidityBarometerVisibility
5:50 PM
Dec 20
39 °FPassing clouds.16 mph93%29.89 "HgN/A
5:20 PM41 °FPassing clouds.17 mph87%29.86 "HgN/A
4:50 PM39 °FPartly cloudy.16 mph93%29.86 "HgN/A
4:20 PM39 °FPartly cloudy.15 mph93%29.86 "HgN/A
3:50 PM39 °FScattered showers. Broken clouds.13 mph87%29.83 "HgN/A
3:20 PM39 °FThunderstorms. Broken clouds.24 mph100%29.86 "Hg4 mi
2:56 PM45 °FLots of rain. Partly sunny.21 mph81%29.83 "Hg1 mi
2:50 PM45 °FScattered showers. Broken clouds.20 mph81%29.80 "HgN/A
2:20 PM43 °FPartly sunny.18 mph87%29.83 "HgN/A
1:50 PM43 °FPartly sunny.20 mph87%29.83 "HgN/A
1:20 PM43 °FDrizzle. Mostly cloudy.22 mph87%29.83 "HgN/A
12:50 PM43 °FMostly cloudy.22 mph81%29.86 "HgN/A
12:20 PM45 °FOvercast.21 mph76%29.86 "HgN/A
11:50 AM43 °FMostly cloudy.22 mph81%29.86 "HgN/A
11:20 AM45 °FMostly cloudy.25 mph71%29.89 "HgN/A
10:50 AM45 °FMore clouds than sun.23 mph71%29.89 "HgN/A
10:20 AM43 °FOvercast.23 mph76%29.89 "HgN/A
9:50 AM45 °FBroken clouds.25 mph71%29.92 "HgN/A
9:20 AM45 °FPartly sunny.21 mph71%29.92 "HgN/A
8:50 AM43 °FMostly cloudy.22 mph81%29.92 "HgN/A
8:20 AM43 °FMostly cloudy.22 mph76%29.92 "HgN/A
7:50 AM43 °FOvercast.20 mph76%29.92 "HgN/A
9:50 PM
Dec 19
43 °FPassing clouds.16 mph76%29.89 "HgN/A
9:20 PM43 °FPartly cloudy.17 mph76%29.89 "HgN/A
8:50 PM43 °FPartly cloudy.15 mph76%29.89 "HgN/A
8:20 PM45 °FPassing clouds.15 mph76%29.86 "HgN/A
7:50 PM45 °FPassing clouds.13 mph76%29.86 "HgN/A
7:20 PM43 °FPassing clouds.13 mph81%29.86 "HgN/A
Weather by CustomWeather, © 2014

See weather overviewHow to use our weather pages